Back to catalog

FENGYUN 1C DEB

AlivePO
NORAD 31342·DEBRIS·🇨🇳 China

Launched May 10, 1999 from Taiyuan Satellite Launch Center

Loading…

Next Passes (next 24 hours)

TLE

FreshSource: Space-Track

Epoch: Sep 14, 2026, 03:33 UTC

1 31342U 99025BQW 26257.14801579  .00000182  00000-0  72593-4 0  9996
2 31342  98.9713 229.4913 0112616 129.4520 231.6695 14.36994244 18391

Track FENGYUN 1C DEB in real time with AllMySat

Download on the App Store